Temp
22 22 23 23 24 23 24 26 26 25 23 24 24 24 23 23 24 23 20 20 20 20 21 22 21 21 21 22 22 22 22 21 22 22 22 21 21 21 22 21 21 21 21 21 20 21 20 20 20
23 23 23 22 23 23 24 26 25 24 24 25 25 24 24 22 22 20 20 20 21 21 21 21 21 21 21 21 22 22 21 21 22 21 22 21 21 21 21 21 21 21 21 21 21 21 20 20 20
23 24 23 24 23 23 24 26 25 25 26 26 24 24 24 22 22 20 20 20 21 21 21 21 21 21 21 21 22 22 22 22 21 21 21 21 21 21 21 21 21 21 21 21 21 21 20 21 21
24 24 23 25 26 26 25 25 26 25 26 25 24 23 22 21 22 20 20 20 21 21 22 22 21 21 21 21 21 21 22 22 21 21 21 21 21 21 21 21 21 21 21 20 20 20 21 22 22
25 24 25 26 26 27 26 26 26 24 24 24 25 22 22 20 19 19 20 20 21 21 21 21 21 22 22 22 21 22 22 22 21 21 21 21 21 21 21 21 21 21 20 20 21 21 22 22 22
24 24 26 26 27 27 25 24 24 23 24 24 24 23 21 19 19 19 20 20 20 21 21 22 22 22 21 21 21 21 21 22 21 21 21 21 21 21 21 21 21 21 21 21 21 22 22 22 22
27 26 28 28 27 27 25 25 24 24 24 24 25 23 20 19 18 19 19 20 20 20 21 21 21 21 21 21 21 21 21 21 22 22 22 22 22 21 21 21 21 22 22 22 22 22 22 22 23
25 26 30 29 27 27 26 25 26 25 23 25 24 22 21 19 18 19 19 20 20 21 21 21 21 21 21 22 22 21 21 22 21 21 21 22 22 21 22 22 22 22 22 22 22 23 22 23 23
28 27 28 29 28 27 25 25 25 25 24 23 24 24 20 19 18 19 19 20 20 19 21 22 22 21 21 21 21 21 21 22 22 21 21 22 22 22 22 22 22 22 22 23 23 23 24 23 23
26 26 29 29 28 27 26 25 24 23 23 23 21 20 19 19 19 19 19 19 20 20 20 21 21 21 21 22 22 22 22 22 22 22 22 22 22 22 22 22 22 23 22 22 23 23 23 24 24
27 28 29 29 28 27 25 25 24 22 23 23 22 21 20 20 20 19 19 19 20 20 20 21 21 21 22 22 22 22 22 22 22 22 22 23 23 22 23 23 23 23 23 23 23 23 23 24 24
29 29 30 27 27 27 25 24 23 24 23 23 23 22 21 20 20 20 18 18 19 20 21 21 21 22 22 22 22 22 22 22 22 22 22 23 23 23 23 23 23 23 23 23 23 24 24 24 23
31 30 28 27 27 25 26 25 25 23 23 23 22 22 21 21 20 20 19 19 20 20 21 22 22 22 23 23 22 22 23 23 23 22 22 22 23 23 23 23 23 23 24 24 23 23 23 23 23
30 28 28 27 28 27 25 25 26 23 23 22 22 22 22 22 22 20 19 19 19 20 21 22 22 22 23 23 23 23 23 23 23 23 23 23 23 23 23 23 23 23 23 23 23 23 23 23 23
29 27 28 28 28 26 26 26 24 23 23 22 22 21 21 21 21 21 20 20 20 21 22 22 22 22 22 23 23 23 23 23 23 23 23 23 23 23 23 23 23 23 23 23 23 23 23 23 23
29 27 26 29 28 26 27 26 25 24 23 22 22 22 21 20 20 20 20 19 20 21 22 22 22 22 23 23 24 24 24 24 24 24 23 23 24 24 24 24 24 23 23 24 23 23 23 23 24
27 27 28 28 28 27 27 26 25 24 23 22 23 23 22 21 21 20 20 20 20 21 22 22 22 23 23 23 23 23 24 24 24 24 24 24 25 24 25 24 24 24 24 24 24 23 23 23 23
28 28 28 27 28 28 26 26 25 24 24 23 23 23 23 22 22 21 21 20 21 21 21 22 22 23 23 23 23 23 24 24 24 24 24 24 24 25 25 24 24 24 23 24 25 23 23 23 22
30 29 30 29 30 28 25 26 25 24 24 24 23 23 23 23 23 22 22 21 21 21 21 22 22 23 23 23 23 23 24 24 24 24 24 25 24 24 23 23 23 23 23 23 22 21 21 22 21
29 28 28 29 30 28 26 26 25 25 24 24 24 24 24 23 23 23 22 22 21 21 21 21 22 23 23 23 23 23 23 24 24 24 24 25 24 23 22 22 22 22 22 22 22 22 21 19 20
29 29 29 31 28 27 27 27 25 26 25 25 25 25 25 24 23 23 23 22 22 22 22 22 23 23 24 23 23 23 23 23 24 24 25 24 24 24 23 23 23 23 23 23 22 22 21 20 21
30 29 30 28 28 26 28 26 24 25 26 26 26 25 25 25 25 24 23 23 22 22 23 23 24 24 25 24 23 23 23 23 24 24 24 24 24 24 24 24 24 23 23 24 23 23 22 20 21
30 31 29 28 26 26 28 27 27 25 25 26 27 26 26 25 25 25 24 24 23 23 24 24 24 24 24 24 24 24 23 24 24 24 24 25 25 24 24 24 24 25 25 24 24 24 24 23 23
33 30 26 24 25 26 26 27 26 24 28 28 28 28 27 26 26 25 25 25 24 24 23 24 24 25 25 24 24 24 24 24 24 25 25 25 25 25 24 24 25 25 25 24 25 24 24 23 23
29 27 25 26 26 26 25 26 27 28 28 29 28 29 28 28 26 26 25 25 24 24 24 24 24 24 25 25 24 24 24 25 24 24 24 25 25 24 24 25 25 25 25 24 24 24 23 23 22
28 27 25 29 26 28 26 27 29 29 29 29 29 29 29 28 27 27 26 25 24 24 24 24 24 24 24 24 25 25 24 24 24 24 24 24 25 25 24 24 24 24 24 24 23 23 23 22 21
28 29 27 23 22 26 25 27 29 29 28 27 28 28 28 28 28 27 26 25 25 24 24 25 24 25 24 25 25 24 25 24 25 24 25 23 25 23 23 23 23 23 24 23 23 22 22 21 21
31 27 29 24 27 29 27 28 29 30 30 28 27 27 28 27 27 25 26 26 25 24 25 25 25 26 25 25 25 25 25 25 25 24 24 24 24 21 21 22 22 22 22 22 22 21 21 20 21
28 28 24 23 23 26 26 27 25 28 29 27 26 27 26 25 25 25 25 26 25 25 24 24 25 24 24 25 25 25 25 25 24 24 23 23 23 22 21 21 21 21 20 20 19 19 19 19 19
29 28 25 25 27 22 24 27 27 25 26 26 26 26 26 25 24 23 23 24 24 24 24 24 24 24 24 24 24 24 24 24 23 21 21 22 22 21 20 20 20 19 20 20 19 19 19 19 18
Height
765 766 766 766 791 794 810 800 784 792 795 788 783 787 798 800 803 816 810 812 813 814 815 815 817 819 819 822 824 826 827 829 830 832 834 835 837 837 839 840 840 842 842 843 843 843 842 843 844
764 765 766 768 806 822 815 790 796 791 789 785 787 791 796 806 800 806 812 815 816 818 818 819 821 822 824 826 828 830 832 834 835 836 838 839 840 841 842 843 844 845 846 847 846 847 848 847 848
764 765 770 783 808 822 815 791 793 788 784 785 794 793 796 807 807 810 814 816 819 821 821 824 825 826 829 830 831 834 835 837 838 839 840 842 842 844 845 846 847 848 849 850 850 851 851 852 852
765 766 771 797 804 797 796 791 787 790 787 787 792 803 801 807 808 813 817 820 822 825 827 827 828 830 833 833 835 836 838 839 840 842 843 844 845 847 847 848 849 850 852 854 855 853 854 854 855
765 769 794 803 802 792 789 787 788 795 794 794 793 809 808 812 813 818 821 824 826 828 830 831 831 834 835 836 838 839 840 843 844 845 846 846 848 849 849 850 851 853 853 853 856 856 856 855 856
773 775 805 814 801 794 794 791 795 799 799 798 802 806 813 816 818 821 824 827 828 830 832 833 834 836 839 840 841 843 843 843 846 848 849 848 850 851 851 851 853 853 854 855 855 856 857 857 856
773 786 798 798 801 797 797 791 799 800 801 804 800 811 816 819 822 824 827 830 831 833 835 837 839 841 842 843 845 847 847 846 848 850 850 851 852 853 853 854 854 854 854 856 856 856 857 857 856
770 779 789 793 803 804 793 793 793 799 806 798 800 816 819 821 824 826 829 832 833 836 839 841 841 844 844 845 848 849 849 848 850 851 853 853 854 854 855 856 856 856 856 856 857 857 857 857 857
762 791 802 794 797 798 792 797 795 796 803 803 803 806 815 822 825 829 832 834 837 840 841 844 844 845 848 848 849 850 852 852 853 854 855 856 856 857 857 857 858 857 857 857 857 857 856 856 856
776 796 789 775 780 790 792 795 799 805 808 811 813 816 819 823 826 829 832 836 838 840 843 844 846 848 850 850 850 852 854 854 856 857 858 858 859 858 858 859 859 858 857 857 856 856 856 855 854
773 790 774 774 777 783 793 797 797 808 814 810 814 816 820 823 827 829 832 835 837 840 843 844 847 849 850 851 853 854 856 857 857 858 859 859 859 859 860 860 860 858 857 857 856 855 854 854 854
780 771 773 779 778 788 796 798 805 803 806 807 812 817 820 824 826 828 831 834 837 839 842 844 847 848 850 851 854 855 856 857 858 858 859 859 859 860 860 860 859 858 857 856 855 854 854 854 854
774 774 775 778 783 791 793 801 803 811 808 812 816 819 822 824 826 828 831 834 836 838 840 843 846 848 850 852 854 854 856 857 858 859 859 859 859 859 860 859 859 858 857 855 856 856 855 854 852
768 775 783 785 789 793 800 804 801 814 812 816 817 819 821 824 825 829 831 833 835 837 839 842 845 847 849 851 853 854 855 857 858 858 858 858 858 858 858 857 856 855 854 854 856 855 854 853 852
771 795 791 794 794 800 799 813 815 809 813 818 820 822 823 825 827 826 828 830 833 835 839 840 843 846 848 851 852 853 854 856 857 857 857 856 856 856 856 856 854 854 852 853 853 853 852 851 850
788 798 821 799 795 802 804 827 814 811 813 818 819 820 822 823 823 825 827 828 828 830 833 837 840 842 845 847 849 851 852 853 854 855 855 855 856 855 854 854 853 852 851 850 851 852 851 849 847
804 824 818 810 795 801 810 822 811 811 813 817 817 818 819 821 822 822 823 823 825 828 831 834 837 840 842 845 847 849 850 850 851 852 853 853 852 852 852 851 851 852 850 846 845 847 848 845 844
816 819 813 816 801 800 814 816 811 810 813 812 814 817 819 819 817 819 820 821 824 825 828 831 834 837 840 845 848 849 849 848 850 851 852 851 850 850 850 850 850 850 848 846 844 847 847 845 844
794 803 808 798 789 803 814 812 813 809 812 813 813 814 815 814 814 816 818 820 821 824 828 830 832 835 839 841 844 846 845 847 849 850 850 849 849 848 848 848 848 847 847 846 848 848 846 845 844
798 808 811 799 788 799 812 814 807 807 807 810 811 811 810 810 812 814 816 820 823 827 830 833 833 836 839 841 842 843 844 845 845 845 846 846 847 846 846 845 845 845 844 844 845 845 845 846 847
793 799 801 800 796 799 807 819 815 805 805 805 804 805 804 805 807 810 812 816 821 826 829 829 831 833 835 838 840 842 842 843 842 843 845 845 844 843 842 841 842 842 842 842 843 843 843 843 843
799 781 783 797 806 830 801 844 821 809 806 802 797 798 798 799 799 803 805 811 819 823 824 827 827 828 831 835 837 839 840 842 841 841 841 843 843 842 839 839 839 840 840 839 840 840 841 841 840
784 767 783 787 809 816 814 830 808 806 812 797 788 787 787 789 791 793 797 806 813 817 818 822 823 826 829 828 830 833 836 836 836 836 838 839 840 839 838 838 837 837 836 837 838 839 839 838 838
757 778 794 807 820 841 819 826 821 815 786 776 780 775 776 780 783 786 791 802 807 811 816 818 822 826 822 823 825 826 828 830 832 833 832 833 836 836 836 835 834 834 833 834 833 833 834 835 836
772 799 843 846 845 846 823 829 807 776 765 758 762 761 764 769 775 780 788 797 802 805 810 813 816 813 815 818 821 824 826 824 828 829 828 826 829 832 834 833 831 831 831 830 830 830 830 831 833
781 790 828 837 854 832 819 829 794 756 751 748 749 749 756 765 768 771 781 788 792 797 803 807 806 806 811 814 815 819 822 822 825 827 829 826 823 825 828 831 829 828 827 827 827 826 827 827 828
780 791 780 827 837 833 827 802 770 756 752 750 750 753 754 757 760 763 775 779 783 790 793 797 798 801 805 809 813 815 816 819 821 825 825 824 820 823 825 825 827 826 825 823 822 823 822 822 821
753 765 797 816 838 834 827 809 800 766 757 753 754 752 750 752 757 764 768 771 776 781 785 789 794 795 801 804 808 811 814 817 819 822 822 820 819 822 825 823 822 822 820 818 817 816 817 815 814
769 779 795 803 817 835 838 817 775 764 755 756 753 747 748 750 755 758 762 766 771 776 782 786 790 793 797 800 803 807 811 815 817 818 819 819 817 819 820 819 818 816 815 811 810 811 812 811 809
746 763 776 807 812 826 821 808 757 759 752 750 748 746 746 749 752 754 757 763 769 773 778 782 786 791 794 798 802 806 810 812 813 814 818 818 817 816 816 816 814 812 810 808 807 808 809 807 804
Wind_Speed
7 5 3 2 4 5 3 4 1 2 3 3 7 7 9 9 3 7 12 20 19 19 19 22 24 24 25 25 24 23 22 21 20 18 18 18 17 16 14 14 16 15 14 14 14 13 13 12 11
10 5 1 1 5 3 4 4 3 4 7 7 9 7 7 5 5 10 15 18 21 21 20 23 24 24 23 23 23 21 20 19 19 19 18 17 15 14 13 13 13 14 13 13 14 13 12 12 11
9 2 2 4 4 3 3 1 4 8 7 2 4 5 4 4 10 5 20 21 22 19 21 21 22 22 20 21 20 20 20 19 18 17 17 15 15 15 13 13 13 13 13 12 13 13 12 11 9
2 1 3 5 4 2 3 4 7 6 5 6 6 7 5 7 4 12 22 20 20 19 19 19 20 19 19 19 19 19 19 18 17 16 15 13 14 13 12 13 13 13 12 11 10 10 9 10 7
3 2 5 3 4 3 5 5 2 3 4 6 3 4 4 6 22 27 22 21 20 19 18 18 18 19 19 19 19 20 19 17 16 15 12 13 12 12 10 11 12 11 12 10 8 7 6 6 5
3 2 4 1 2 3 5 8 5 9 10 9 9 5 5 19 22 21 22 20 19 20 19 19 18 17 18 18 17 17 17 18 15 14 13 12 11 10 9 11 10 10 9 8 7 5 3 3 3
1 4 2 2 3 2 5 6 4 6 6 6 7 4 4 13 16 21 21 18 19 19 18 16 17 17 17 17 16 16 16 17 15 13 12 12 10 7 8 6 6 6 6 5 4 4 4 3 3
2 3 2 2 1 2 5 5 4 5 5 5 8 4 6 10 18 22 20 18 17 17 16 16 16 18 17 18 15 14 16 18 16 14 12 11 9 8 6 4 3 2 3 3 3 3 2 1 2
2 4 2 1 4 4 4 4 6 7 8 5 4 9 16 20 21 21 18 16 17 19 13 15 16 16 16 16 16 14 12 13 12 11 8 9 10 8 8 6 5 5 5 5 4 4 3 3 4
4 3 6 5 5 5 5 5 5 4 7 8 12 18 21 20 19 18 14 12 14 13 12 16 14 13 14 12 11 10 9 10 8 5 4 5 5 5 6 4 4 5 5 4 4 4 3 4 6
2 5 4 3 8 11 5 4 3 10 4 6 16 15 18 18 15 16 13 15 18 15 14 17 14 11 10 9 6 7 5 5 4 3 4 5 3 4 4 3 3 4 5 5 5 5 5 6 7
3 5 3 6 7 6 4 6 7 2 4 14 15 17 16 15 15 16 15 18 20 17 17 18 18 12 10 8 5 5 2 3 3 4 4 5 5 6 6 5 6 5 6 6 7 7 8 10 11
1 4 7 12 8 7 7 6 6 7 13 13 17 15 14 14 16 14 17 19 21 20 20 20 20 15 12 10 7 5 1 3 4 4 5 6 7 6 7 6 7 7 6 9 9 10 11 11 13
4 13 12 9 8 5 8 4 4 5 10 12 14 14 12 13 16 14 17 19 24 23 22 21 21 18 15 13 11 5 1 4 5 2 3 4 7 7 8 6 7 8 10 10 9 10 12 13 13
8 9 10 4 5 4 13 2 2 12 12 11 12 12 13 14 16 17 19 21 26 27 24 24 22 21 17 14 14 11 8 7 6 8 8 7 9 9 10 9 9 9 11 8 9 11 13 13 13
6 6 4 4 5 6 1 1 4 10 12 10 10 10 11 11 19 19 19 22 29 30 31 28 26 25 22 20 18 16 13 12 12 11 13 13 13 14 12 11 8 9 9 11 14 14 12 17 15
6 4 3 2 7 7 1 2 7 9 9 9 9 9 9 9 14 20 23 26 28 30 31 33 32 29 25 22 20 18 16 16 14 14 13 13 13 12 10 10 8 9 11 14 17 16 17 19 19
6 4 2 6 8 4 6 5 9 13 10 11 10 8 8 9 14 20 23 25 28 29 30 31 32 33 29 23 21 20 20 20 18 15 13 11 11 7 8 7 11 10 13 15 19 18 20 20 22
5 6 6 6 5 5 8 5 11 13 11 10 9 9 8 11 13 19 23 24 26 27 28 30 31 33 30 26 23 22 24 21 17 14 14 14 11 10 9 8 11 10 11 14 17 20 20 21 18
7 6 6 4 4 10 6 4 8 13 14 11 11 10 11 9 7 14 20 21 23 25 25 25 29 30 30 29 27 24 19 18 18 15 13 11 8 9 13 11 10 13 14 11 12 14 17 16 11
4 5 4 5 4 4 7 2 7 7 10 9 11 12 12 14 13 10 17 23 23 25 26 28 28 29 30 29 28 24 23 21 20 18 15 11 12 14 10 7 5 6 7 9 10 11 13 14 17
5 7 7 9 7 5 2 4 6 9 13 12 15 15 15 16 14 13 20 21 22 26 29 29 30 30 29 28 28 27 26 23 21 18 15 15 14 12 10 5 5 5 6 7 9 11 12 13 17
8 3 2 6 6 6 1 3 6 8 11 19 18 17 18 17 18 18 22 24 26 27 33 32 33 32 32 32 31 30 27 27 25 20 18 18 17 15 12 7 8 9 10 10 10 14 14 16 19
3 6 9 7 4 2 6 5 5 6 16 17 18 18 19 18 18 18 26 24 25 29 28 32 33 34 35 36 35 34 31 30 28 24 18 14 14 14 8 5 6 6 7 6 8 12 16 19 22
5 6 3 3 2 5 2 5 10 9 13 17 22 23 20 18 17 16 14 20 24 29 30 33 35 41 41 38 38 35 33 32 29 28 20 13 13 15 11 9 11 11 12 14 15 15 15 17 19
6 8 6 6 5 3 3 5 7 5 9 9 13 20 14 15 16 17 16 24 29 31 32 33 37 41 39 40 40 37 34 31 28 27 22 15 10 14 13 15 14 13 13 15 14 13 15 17 21
5 3 5 8 3 3 3 7 10 5 5 5 10 9 13 15 17 18 16 26 29 30 36 40 40 41 36 38 39 35 34 30 26 24 21 14 10 11 9 10 14 13 15 14 17 21 23 25 26
5 7 3 3 5 4 4 4 5 7 6 4 8 12 13 10 12 9 15 25 28 32 38 41 37 42 37 36 34 35 34 29 27 24 23 14 12 11 13 15 17 18 19 20 22 24 27 22 21
2 2 6 6 4 6 2 6 6 7 6 8 9 9 9 9 9 11 13 23 28 29 31 33 35 35 34 32 33 29 30 28 26 24 20 14 13 14 17 18 19 21 22 20 19 19 19 19 20
4 7 6 5 4 1 4 6 5 8 9 7 9 8 5 6 9 9 13 21 23 26 28 32 31 30 31 28 23 22 23 24 24 21 13 15 17 22 22 21 19 17 13 12 13 16 18 20 21
Wind_Direction
170 165 147 107 53 62 353 322 56 78 42 4 44 76 91 38 27 103 146 136 128 125 119 111 112 112 113 113 112 112 111 110 110 110 109 109 106 104 109 103 103 102 99 96 99 101 102 105 107
168 148 314 95 79 55 290 342 29 78 136 120 71 78 57 70 50 99 121 136 133 126 121 115 115 111 111 114 114 112 107 106 106 107 109 104 102 102 102 99 98 100 99 101 101 96 98 101 103
163 188 47 81 110 153 201 70 103 139 165 56 100 41 76 72 98 109 140 139 135 129 125 117 112 107 109 113 114 113 108 105 105 106 104 103 100 104 103 105 104 101 97 96 99 97 98 97 95
218 329 25 62 33 59 172 119 130 119 41 51 114 71 77 39 87 128 140 137 134 131 132 123 109 105 108 109 112 111 108 107 105 106 104 100 101 106 105 96 99 101 99 91 90 93 100 99 89
27 32 55 51 7 45 56 111 10 72 61 51 49 75 62 65 119 131 136 136 132 129 126 122 113 111 111 110 110 110 109 104 102 100 100 102 106 107 106 101 97 96 100 100 93 84 88 96 95
16 102 53 20 74 103 72 61 73 86 99 99 85 86 66 107 118 134 138 133 129 126 123 121 116 117 110 106 105 105 107 108 102 102 99 97 101 106 106 110 110 104 95 97 100 104 85 61 49
111 81 181 121 140 116 118 139 108 101 90 61 130 88 87 93 123 137 134 129 125 127 124 124 121 112 104 102 100 101 102 101 100 107 108 108 103 104 113 110 104 99 96 84 85 90 81 56 340
148 97 93 38 187 22 137 117 140 76 61 110 148 129 130 132 132 140 139 129 130 132 124 129 123 111 106 101 99 99 100 97 97 96 95 98 103 99 91 86 75 71 64 56 29 38 39 101 291
185 63 132 240 135 142 147 107 36 72 101 48 15 112 120 133 135 140 146 138 127 137 158 138 122 116 111 106 107 103 98 100 98 95 95 94 89 86 74 61 47 41 39 38 22 14 1 349 321
86 107 213 169 141 137 124 96 120 93 93 92 93 109 128 137 141 143 153 147 149 157 154 138 145 131 118 106 105 112 108 98 90 77 72 75 73 71 61 41 34 30 19 9 355 351 347 307 324
150 175 196 90 100 115 110 87 87 124 98 143 137 135 139 143 153 159 161 168 169 170 164 159 156 145 136 117 101 104 102 91 78 41 52 55 47 18 12 20 16 347 329 322 320 325 320 330 325
126 251 105 100 105 105 108 117 111 344 123 139 141 143 149 155 166 173 173 178 181 182 176 177 176 168 163 160 147 110 100 55 42 23 12 8 9 355 358 355 339 324 336 327 312 305 314 314 315
306 71 66 103 95 94 117 84 90 83 117 130 143 151 159 168 176 179 183 188 190 194 190 187 189 187 188 193 186 153 102 19 344 337 344 345 348 342 325 324 328 327 310 298 299 316 321 322 315
105 89 102 90 111 114 105 129 79 115 129 140 155 164 170 179 185 172 180 192 201 202 201 197 201 203 207 208 207 203 253 330 335 304 327 331 323 313 308 315 309 290 287 286 302 306 317 317 315
96 75 80 94 125 84 118 22 70 142 148 160 169 174 180 188 192 201 194 198 207 209 208 209 209 214 221 225 229 243 274 295 293 298 305 317 313 304 287 293 308 302 296 299 294 297 305 307 313
73 63 88 234 137 155 336 127 134 162 157 172 180 185 187 195 201 203 202 208 211 212 212 211 214 219 221 223 230 242 258 276 290 304 309 319 319 312 294 273 300 299 297 305 295 293 292 320 321
21 164 150 197 183 161 70 181 168 179 184 182 190 194 198 196 207 212 209 211 213 215 217 219 220 224 226 228 233 241 254 268 274 283 298 310 314 310 291 268 267 278 295 308 304 298 308 320 321
192 132 206 196 204 179 157 243 170 184 203 201 192 194 203 204 213 210 212 213 215 216 218 219 220 224 229 237 243 250 260 264 269 276 293 302 304 305 284 288 261 274 271 259 305 307 318 326 322
138 168 203 219 197 149 192 177 192 190 209 213 206 200 199 214 218 211 213 214 215 218 217 218 219 220 225 232 238 246 254 263 267 281 289 297 313 303 281 279 283 278 277 289 285 300 315 317 332
146 165 248 299 202 177 161 205 188 196 215 218 205 211 212 220 198 204 208 210 212 219 221 223 224 225 230 234 237 245 257 263 273 274 274 297 314 302 289 287 283 276 276 280 296 319 319 316 335
201 192 186 180 118 56 122 334 178 214 217 217 221 214 218 212 210 200 205 207 208 214 220 222 222 224 228 232 239 244 250 260 266 277 292 300 326 332 322 297 299 308 300 295 297 312 308 301 310
256 194 242 151 141 177 156 250 222 209 212 220 219 206 210 209 215 210 202 204 205 215 221 224 225 223 225 231 239 244 247 256 267 281 296 305 316 316 325 300 294 295 298 294 304 314 318 312 310
225 56 19 160 108 106 304 61 256 170 222 223 223 212 212 206 204 208 209 200 203 213 220 222 225 227 230 229 230 237 244 252 259 268 285 302 310 319 323 290 286 278 279 287 323 331 323 318 311
125 77 41 51 76 15 193 147 279 185 218 228 217 222 212 210 209 209 209 196 195 210 216 224 226 230 230 234 235 235 238 249 255 259 264 290 308 321 323 336 321 287 266 285 305 312 312 304 299
88 72 32 37 345 211 153 116 242 237 242 216 202 216 210 204 205 206 187 184 188 197 206 220 226 231 232 233 239 242 243 247 254 261 262 258 291 301 308 310 312 306 309 306 292 298 298 297 286
174 159 149 183 187 198 38 225 253 242 256 234 212 212 208 202 207 208 178 179 190 194 199 209 222 231 233 236 239 243 245 251 253 261 272 264 272 281 295 292 292 281 302 308 311 310 302 299 297
185 147 168 102 11 73 209 280 307 259 310 197 194 183 203 199 203 207 172 183 190 190 198 208 219 231 228 235 239 244 244 247 251 262 264 259 277 289 277 290 297 288 302 315 313 308 305 300 304
140 153 93 15 132 210 272 267 236 326 327 314 188 191 202 197 197 168 182 188 190 192 203 212 215 228 228 233 237 242 247 247 250 255 260 280 289 293 288 288 295 304 306 311 309 303 307 304 304
108 115 55 110 116 155 172 266 212 241 254 226 225 220 196 181 163 177 181 187 189 193 197 205 215 221 226 231 233 240 243 243 246 247 246 272 290 305 312 313 306 309 309 315 314 311 308 307 304
146 168 139 132 219 105 141 267 262 258 236 207 226 223 198 165 169 167 163 163 174 185 194 205 213 220 228 232 230 235 234 236 240 244 257 278 298 304 301 304 313 309 321 340 334 322 309 302 304